sat.trackr.live / text

‹ back to catalog

STARLINK-36505

NORAD 67463 · 2026-008U

PAYLOAD ACTIVE UNKNOWN

§ Identity

Operator
Country
US
Launch date
2026-01-14
Launch site
AFETR
Launch vehicle
Mass (kg)
RCS (m²)

Purposes: comms

External: N2YO · Heavens-Above · Gunter

§ Orbital elements

Epoch: 2026-09-19T05:39:11.332512Z

Period
94.27 min
Inclination
42.9972°
Eccentricity
0.0000895
Mean motion
15.27590113 rev/d
Perigee alt
482.4 km
Apogee alt
483.6 km
Semi-major
6,861.2 km
B*
4.0918e-4
RAAN
192.0770°
Arg perigee
277.3394°
Mean anomaly
82.7355°
Rev number
3,917

§ Raw data

STARLINK-365051 67463U 26008U   26262.23554783  .00011018  00000+0  40918-3 0  99922 67463  42.9972 192.0770 0000895 277.3394  82.7355 15.27590113 39178

JSON: /api/v1/satellites/67463 · /tle

For live sub-satellite position, see the globe view (requires WebGL).

§ Visibility from observer

Set your observer location to see the next 7 days of passes ≥ 10°. The values pass through the URL so the page stays shareable.

No JS? Fill the form by hand. The geolocation button needs JavaScript.